TimeCDT,TemperatureF,Dew PointF,Humidity,Sea Level PressureIn,VisibilityMPH,Wind Direction,Wind SpeedMPH,Gust SpeedMPH,PrecipitationIn,Events,Conditions,WindDirDegrees,DateUTC
12:53 AM,79.0,75.9,90,29.97,10.0,SSW,4.6,-,N/A,,Scattered Clouds,210,2012-08-14 05:53:00
1:53 AM,79.0,75.9,90,29.96,10.0,SSW,4.6,-,N/A,,Partly Cloudy,200,2012-08-14 06:53:00
2:53 AM,79.0,75.9,90,29.96,10.0,South,5.8,-,N/A,,Clear,190,2012-08-14 07:53:00
3:53 AM,78.1,75.9,93,29.95,10.0,SSW,4.6,-,N/A,,Clear,200,2012-08-14 08:53:00
4:53 AM,78.1,75.9,93,29.96,10.0,SSW,4.6,-,N/A,,Clear,210,2012-08-14 09:53:00
5:53 AM,79.0,75.9,90,29.96,10.0,SW,4.6,-,N/A,,Clear,220,2012-08-14 10:53:00
6:53 AM,80.1,75.9,87,29.98,10.0,Calm,Calm,-,N/A,,Scattered Clouds,0,2012-08-14 11:53:00
7:53 AM,82.0,77.0,85,29.99,10.0,WSW,5.8,-,N/A,,Scattered Clouds,250,2012-08-14 12:53:00
8:53 AM,84.9,77.0,77,30.00,10.0,West,8.1,-,N/A,,Clear,280,2012-08-14 13:53:00
9:28 AM,86.0,77.0,74,30.00,10.0,West,11.5,-,N/A,,Mostly Cloudy,260,2012-08-14 14:28:00
9:42 AM,87.8,77.0,70,30.00,10.0,West,12.7,-,N/A,,Scattered Clouds,260,2012-08-14 14:42:00
9:53 AM,86.0,77.0,74,30.00,10.0,West,11.5,-,N/A,,Mostly Cloudy,280,2012-08-14 14:53:00
10:00 AM,87.8,77.0,70,30.00,10.0,West,11.5,17.3,N/A,,Scattered Clouds,270,2012-08-14 15:00:00
10:38 AM,87.8,75.2,66,30.00,10.0,West,9.2,-,N/A,,Mostly Cloudy,260,2012-08-14 15:38:00
10:53 AM,88.0,75.0,65,30.00,10.0,West,11.5,-,N/A,,Mostly Cloudy,280,2012-08-14 15:53:00
11:03 AM,87.8,75.2,66,30.00,10.0,West,8.1,-,N/A,,Scattered Clouds,270,2012-08-14 16:03:00
11:53 AM,90.0,75.0,61,29.99,10.0,WSW,10.4,16.1,N/A,,Partly Cloudy,240,2012-08-14 16:53:00
12:53 PM,91.0,75.0,59,29.97,10.0,West,10.4,-,N/A,,Scattered Clouds,270,2012-08-14 17:53:00
1:53 PM,91.9,73.0,54,29.96,10.0,WNW,10.4,-,N/A,,Mostly Cloudy,290,2012-08-14 18:53:00
2:53 PM,93.9,73.0,51,29.94,10.0,WNW,9.2,-,N/A,,Partly Cloudy,300,2012-08-14 19:53:00
3:53 PM,93.0,73.0,52,29.91,10.0,WSW,6.9,17.3,N/A,,Scattered Clouds,250,2012-08-14 20:53:00
4:53 PM,93.0,73.0,52,29.89,10.0,WSW,10.4,-,N/A,,Mostly Cloudy,250,2012-08-14 21:53:00
5:53 PM,91.9,75.0,58,29.89,10.0,SW,10.4,-,N/A,,Partly Cloudy,230,2012-08-14 22:53:00
6:53 PM,91.0,75.0,59,29.90,10.0,WSW,9.2,-,N/A,,Clear,240,2012-08-14 23:53:00
7:53 PM,87.1,73.9,65,29.91,10.0,SW,11.5,-,N/A,,Clear,230,2012-08-15 00:53:00
8:53 PM,84.9,75.0,72,29.92,10.0,SW,10.4,-,N/A,,Clear,220,2012-08-15 01:53:00
9:53 PM,82.0,75.0,79,29.94,10.0,SW,4.6,-,N/A,,Clear,220,2012-08-15 02:53:00
10:53 PM,81.0,75.0,82,29.94,10.0,SW,5.8,-,N/A,,Clear,220,2012-08-15 03:53:00
11:53 PM,81.0,75.9,85,29.94,10.0,SW,5.8,-,N/A,,Clear,220,2012-08-15 04:53:00